Regional Weather Roundup
Issued by NWS

Home | Current Version | Previous Version | Graphics & Text | Print | Product List | Glossary On
Versions: 1 2 3 4 5 6 7 8 9 10 11 12 13 14 15 16 17 18 19 20 21 22 23 24 25 26 27 28 29 30 31 32 33 34 35 36 37 38 39 40 41 42 43 44 45 46 47 48 49 50
000
ASUS45 KABQ 091910
RWRNM
NEW MEXICO REGIONAL WEATHER ROUNDUP
NATIONAL WEATHER SERVICE ALBUQUERQUE NM
1200 PM MST TUE FEB 09 2016

NOTE: "FAIR" MEANS FEW OR NO CLOUDS BELOW 12,000 FEET AGL WITH NO
       SIGNIFICANT WEATHER OR OBSTRUCTIONS TO VISION.

      THIS PRODUCT IS RELEASED AS TWO VERSIONS.  ONE VERSION NEAR
      THE TOP OF THE HOUR CONTAINING PRELIMINARY DATA FROM ALBUQUERQUE
      AND OTHER STATIONS.  A FINAL VERSION WITH ADDITIONAL DATA IS
      ISSUED ABOUT 10 MINUTES AFTER THE HOUR.

NMZ501-503-504-510>518-092000-
NORTHWEST PLATEAU/NORTHCENTRAL MOUNTAINS

CITY           SKY/WX    TMP DP  RH WIND       PRES   REMARKS
FARMINGTON     SUNNY     43  25  49 CALM      30.43F
LOS ALAMOS     SUNNY     46  19  34 E6        30.43F
SANTA FE       SUNNY     50  20  30 NW10      30.40F
TAOS           SUNNY     41  19  42 S6        30.43F
ANGEL FIRE     FAIR      28  19  69 CALM      30.41F

$$
NMZ402-403-502-505>509-092000-
WESTCENTRAL MOUNTAINS/SOUTHWEST MOUNTAINS

CITY           SKY/WX    TMP DP  RH WIND       PRES   REMARKS
GALLUP         SUNNY     50  22  33 W6        30.44F
GRANTS         SUNNY     53  12  19 N12G18    30.45F
SILVER CITY      N/A     57  19  23 S7        30.41F

$$
NMZ407-409-411-412-092000-
SOUTHERN DESERTS

CITY           SKY/WX    TMP DP  RH WIND       PRES   REMARKS
LORDSBURG      FAIR      61  21  21 SE16G23   30.36F
DEMING         SUNNY     60  20  21 E8        30.38F
LAS CRUCES     SUNNY     56  17  21 E5        30.40F
HOLLOMAN AFB   SUNNY     56  16  20 S3        30.38F
ALAMOGORDO     SUNNY     55  16  21 CALM      30.40F
T OR C         SUNNY     57  20  23 VRB5      30.38F

$$
NMZ519>523-092000-
CENTRAL VALLEYS/CENTRAL HIGHLANDS

CITY           SKY/WX    TMP DP  RH WIND       PRES   REMARKS
ALBUQUERQUE    SUNNY     53  19  26 VRB5      30.41F
DOUBLE EAGLE   SUNNY     54  21  28 VRB6      30.43F
MORIARTY ARPT  FAIR      54  20  26 N5        30.40F
CLINES CORNERS SUNNY     48  21  34 NW12      30.39F
BELEN          FAIR      52  20  28 CALM      30.41F
SOCORRO        FAIR      53  21  28 N7        30.41F

$$
NMZ524>526-539-540-092000-
SOUTHCENTRAL MOUNTAINS

CITY           SKY/WX    TMP DP  RH WIND       PRES   REMARKS
RUIDOSO          N/A     57  16  19 NW7       30.41F

$$
NMZ527>531-092000-
NORTHEAST HIGHLANDS/NORTHEAST PLAINS

CITY           SKY/WX    TMP DP  RH WIND       PRES   REMARKS
LAS VEGAS      SUNNY     52  16  24 E5        30.38F
RATON          SUNNY     51  20  29 VRB5      30.34F
CLAYTON        SUNNY     57  19  22 VRB5      30.33F

$$
NMZ532>537-092000-
EASTCENTRAL PLAINS

CITY           SKY/WX    TMP DP  RH WIND       PRES   REMARKS
TUCUMCARI      SUNNY     56  18  22 W7        30.34F
CANNON AFB     SUNNY     55  15  20 W9        30.36F
CLOVIS AIRPORT SUNNY     55  18  22 S9        30.38F

$$
NMZ028-029-538-092000-
SOUTHEAST PLAINS

CITY           SKY/WX    TMP DP  RH WIND       PRES   REMARKS
ROSWELL        SUNNY     54  15  21 SE9       30.38F
ARTESIA        SUNNY     54  19  26 S9        30.38F
CARLSBAD       SUNNY     56  19  23 SE10      30.37F
HOBBS          SUNNY     57  18  21 S9        30.39F


$$



USA.gov is the U.S. government's official web portal to all federal, state and local government web resources and services.